C/2016 M1 ( PanSTARRS )

Japanese version
Home page
Updated on September 16, 2018

---------------------------------------------------------------------

* Profile

Discovery Date June 22, 2016
Magnitude 19.7 mag
Discoverer Pan-STARRS 1 telescope (Haleakala)

* Pictures

* Orbital Elements

Epoch 2018 Aug. 30.0 TT = JDT 2458360.5
T 2018 Aug. 10.17339 TT                                 MPCW
q   2.2104727            (2000.0)            P               Q
z  +0.0004129      Peri.  209.82657     +0.02467965     -0.03424826
 +/-0.0000004      Node    92.20326     -0.59785053     +0.80049562
e   0.9990873      Incl.   90.99983     -0.80122760     -0.59835927
From 2139 observations 2016 June 22-2018 Mar. 25, mean residual 0".4.

* Finding Charts

* Magnitudes Graph

        m1 = 7.0 + 5 log d +  7.5 log r  [    ,-310]  (             - 2017 Oct.  4)
        m1 = 2.5 + 5 log d + 15.0 log r  [-310, 310]  (2017 Oct.  4 - 2019 June 16)
        m1 = 7.0 + 5 log d +  7.5 log r  [ 310,    ]  (2019 June 16 -             )

---------------------------------------------------------------------

The orbital elements are published on M.P.E.C. 2018-F152.
The charts are made with StellaNavigator Ver.10 (AstroArts).
The magnitudes graphs are made with Comet for Windows.

---------------------------------------------------------------------

Copyright(C) Seiichi Yoshida (comet@aerith.net). All rights reserved.